User: anonymous   Login
Location: Bh?mavarapp?du
(16.7041°N, 80.6518°E)
Time: 20:49:12
(UTC+00:00)
Language:

Feng Yun 1-1 Rocket - Orbit

View from above orbital plane
View from above orbital plane
View from above satellite
View from above satellite

Ground track
Ground track

The orbit data is extracted from the following two-line orbital elements,

1 19468U 88080B   21172.60284384 -.00000062  00000-0 -93770-5 0  9991
2 19468  99.1966 196.4110 0070735 301.7966 168.2670 14.03543023678855
Epoch (UTC): 21 June 2021 14:28:05
Eccentricity: 0.0070735
inclination: 99.1966°
perigee height: 830 km
apogee height: 933 km
right ascension of ascending node: 196.4110°
argument of perigee: 301.7966°
revolutions per day: 14.03543023
mean anomaly at epoch: 168.2670°
orbit number at epoch: 67885

The dashed part of the orbit path shows where the satellite is in the earth's shadow,  

DLR